Regional Weather Roundup
Issued by NWS State College, PA

Home | Current Version | Previous Version | Text Only | Print | Product List | Glossary On
Versions: 1 2 3 4 5 6 7 8 9 10 11 12 13 14 15 16 17 18 19 20 21 22 23 24 25 26 27 28 29 30 31 32 33 34 35 36 37 38 39 40 41 42 43 44 45 46 47 48 49 50
000
ASUS41 KCTP 311710
RWRCTP

REGIONAL WEATHER ROUNDUP
NATIONAL WEATHER SERVICE STATE COLLEGE PA
1200 PM EST SAT JAN 31 2015

Note: "fair" indicates few or no clouds below 12,000 feet with no
significant weather and/or obstructions to visibility.

* = STATION THAT DOES NOT REPORT PRECIPITATION /E.G. RAIN...SNOW...ETC/
    THUNDER OR FOG.

PAZ002>004-007>009-013>016-020>023-029>032-311800-
WESTERN PENNSYLVANIA

CITY           SKY/WX    TMP DP  RH WIND       PRES   REMARKS
ERIE           PTSUNNY   21  10  62 SW8       30.30F WCI  11
MEADVILLE      CLOUDY    17  10  74 VRB6      30.25F WCI   9
FRANKLIN*      MOSUNNY   18   7  62 SW9       30.27F WCI   6
NEW CASTLE     PTSUNNY   21  10  62 VRB3      30.32F
BEAVER COUNTY  CLOUDY    21  10  63 SW5       30.30F WCI  15
BUTLER*        SUNNY     19   9  63 S13       30.31F WCI   7
PITTSBURGH INT PTSUNNY   22  11  62 W7        30.31F WCI  13
PITTSBURGH     SUNNY     20   8  60 W10       30.30F WCI   9
INDIANA*       CLOUDY    16   9  73 W9        30.32F WCI   4
LATROBE        PTSUNNY   19   9  63 SW13      30.35F WCI   7
WASHINGTON CO* SUNNY     23  10  58 SW7       30.33F WCI  15
$$

PAZ004>006-010>012-017>019-024>028-033>037-041-042-045-046-049>053-311800-
CENTRAL PENNSYLVANIA

CITY           SKY/WX    TMP DP  RH WIND       PRES   REMARKS
BRADFORD       PTSUNNY   15   5  64 W6        30.17F WCI   6
DUBOIS         CLOUDY    13   6  74 SW10      30.23F WCI   0
CLEARFIELD     PTSUNNY   16   5  62 W12       30.25F WCI   3
JOHNSTOWN      CLOUDY    13   6  74 W14G20    30.20F WCI  -2
ALTOONA        SUNNY     33   6  32 NW14      30.26F
STATE COLLEGE  MOSUNNY   18   5  57 W14       30.26F WCI   4
WILLIAMSPORT   MOSUNNY   21   4  47 NW13      30.27F WCI   9
SELINSGROVE    SUNNY     21   5  50 NW10G18   30.29F WCI  10
FT INDIANTOWN  SUNNY     21   3  45 N10G20    30.26F WCI  10
CAPITAL CITY   SUNNY     22   5  48 NW9       30.29F WCI  12
HARRISBURG     MOSUNNY   21   7  54 NW20      30.28F WCI   6
YORK           SUNNY     21   6  52 NW10      30.28F WCI  10
$$

PAZ038>040-043-044-047-048-054-055-060>062-067>071-311800-
EASTERN PENNSYLVANIA

CITY           SKY/WX    TMP DP  RH WIND       PRES   REMARKS
SCRANTON       PTSUNNY   17   1  49 NW13G20   30.20F WCI   4
MOUNT POCONO   SUNNY     11  -1  58 NW30G44   30.03F BLWGSNOWWCI -11
ALLENTOWN      SUNNY     20   0  41 NW14G22   30.21F WCI   7
QUAKERTOWN*    SUNNY     19   1  45 NW15G21   30.21F WCI   5
READING        SUNNY     21   5  50 NW20      30.24F WCI   6
LANCASTER      SUNNY     20   4  50 NW17G25   30.26F WCI   5
COATESVILLE    SUNNY     19   7  58 NW14      30.23F WCI   6
POTTSTOWN      SUNNY     20   3  48 NW17G24   30.24F WCI   5
BLUE BELL      SUNNY     23   3  42 NW16G22   30.22F WCI  10
DOYLESTOWN     SUNNY     19   1  45 NW12G24   30.20F WCI   7
WILLOW GROVE   NOT AVBL
NORTH PHILA    SUNNY     23  -1  35 NW17G26   30.24F WCI   9
PHILADELPHIA   SUNNY     24   0  35 NW21G32   30.25F WCI   9
$$


USA.gov is the U.S. government's official web portal to all federal, state and local government web resources and services.